ONEWEB-0301 (49090 NORAD) Tracking and Keplerian Element Data

This shows tracking and keplerian element data for the satellite.

Feedback or suggestion? Click here.




ElementValue
Catalog49090
NameONEWEB-0301
Epoch Orbit562
Epoch Day262.16668981
Epoch Year2021
RAAN356.3308
Inclination87.3308
Eccentricity0.0020915
Argument of Perigee190.6496
Mean Anonmoly341.7143
Mean Motion15.21511811
Decay Rate-0.00809326
L11 49090U 21075R 21262.16668981 -.00809326 00000-0 -38653-1 0 9991
L22 49090 87.3308 356.3308 0020915 190.6496 341.7143 15.21511811 5625

Live tracking and technical data element details for ONEWEB-0301 (NORAD 49090). ONEWEB-0301 can be tracked NOW for your location showing map with azimuth and elevation plus other details from your city location.

Track the satellite on the map from your city or location and see movement details for azimuth, elevation, latitude, longitude, range, height, and movement on the map or in text.







IsCatalogInMostPopularTable: catalog: 49090, numindb: 5
Update: records affected: 1



GetName: 49090 ONEWEB-0301

Hit Count: updated at: Fri, 24 Sep 2021 18:26:05 GMT